Погода Зея

Погода Зея : погода сейчас, прогноз погоды и архив. Всё, что Вы хотите узнать о погоде Зея!

Хотите узнать прогноз погоды Зея? Тогда Вам сюда: Погода Зея

Поиск расширенной информации на нашем сайте:

Другие новости

Новости СМИ2

Главная страница сайта

Новости сайта

03.07.2017

Напоминаем, что на нашем специализированном сайте Метеоцентр.Азия вы можете получить высокодетализированные автоматические прогнозы погоды по пунктам России, СНГ и мира в авиационном формате (включающие направление и скорость ветра, видимость, явления погоды, количество и форму облачности, нижнюю и верхнюю границу облачности).


Погода Зея - сегодня

Время (UTC), дата Ветер
(°,м/с) 
Видим.   Явления Облачность Т
(°С)
Тd
(°С)
f(%) Тe
(°С)
Pmin
(гПа)
dP
(гПа)
Po
(мм)
O2
(г/м3)
Тmin Tmax R s Состояние
почвы
21 21.11.17 тихо ()   10 км  туман на расстоянии  ясно 
-22.8 -25.2 81 -23  1014.7  -0.4  737  326           
00 22.11.17 тихо ()   20000 м  туман на расстоянии  ясно 
-24.7 -27.7 76 -25  1014.7  -0.3  737  328  -25      равномерный
сухой снег
100% 
03 22.11.17 270 (З) 20000 м    ясно 
-14.4 -19.9 63 -14  1012.5  -0.9  737  315           
06 22.11.17 350 (С) 20000 м    10/0 верхняя 
[Ci sp]
-12.3 -24.2 36 -14  1011.7  -0.5  736  312           
09 22.11.17 330 (СЗ) 20000 м    8/0 средняя, верхняя 
[Ac trans|Ci sp]
-15.5 -25.8 41 -16  1012.8  0.7  737  316           
12 22.11.17 тихо ()   20000 м    ясно 
-19.3 -25.5 58 -19  1014  0.7  737  321    -11.8       
15 22.11.17 010 (С) 20000 м    ясно 
-17 -25.8 46 -19  1013.9  0.2  737  318           
18 22.11.17 350 (С) 20000 м    ясно 
-18 -27 45 -21  1014.4  0.4  738  320           
21 22.11.17 270 (З) 20000 м    ясно 
-22.3 -28.1 59 -23  1015.4  0.4  738  326           
00 23.11.17 360 (С) 20000 м    10/0 средняя, верхняя 
[Ac lent|Ci sp]
-17.5 -27.6 41 -21  1014.8  738  319  -22.7      сухой снег
50-90% 
03 23.11.17 030 (СВ) 4{11}  20000 м    10/0 верхняя 
[Ci sp]
-16.4 -28.1 36 -21  1015.1  0.4  738  318           
06 23.11.17 030 (СВ) 20000 м    8/0 верхняя 
[Ci sp]
-16.4 -29 33 -19  1016.2  739  319           
09 23.11.17 010 (С) 20000 м    6/0 верхняя 
[Ci sp]
-17.3 -29.5 34 -20  1017.7  1.4  740  320           
12 23.11.17 010 (С) 20000 м    ясно 
-18.1 -29.4 36 -22  1017.4  -0.4  740  321    -16       
15 23.11.17 360 (С) 20000 м    ясно 
-19.5 -29.5 41 -22  1017.7  0.1  740  323           
18 23.11.17 330 (СЗ) 20000 м    ясно 
-21.7 -30.2 46 -22  1017.6  -0.3  740  326           
21 23.11.17 350 (С) 20000 м    ясно 
-21.2 -30.9 41 -24  1016.6  -0.9  739  325           
00 24.11.17 350 (С) 20000 м    3/0 верхняя 
[Ci sp]
-21.3 -31.3 40 -24  1016.9  0.3  739  325  -21.9      сухой снег
50-90% 
03 24.11.17 350 (С) 20000 м    3/0 верхняя 
[Ci sp]
-19.7 -31.5 34 -22  1015.9  -0.8  739  323           
06 24.11.17 360 (С) 20000 м    ясно 
-19.7 -32.1 32 -20  1015.7  -0.2  738  322           
09 24.11.17 010 (С) 20000 м    ясно 
-21.7 -30.7 44 -25  1016.6  0.6  739  325           
12 24.11.17 350 (С) 20000 м    ясно 
-24 -32.6 45 -24  1016.6  -0.3  739  328    -19.2       
15 24.11.17 310 (СЗ) 20000 м    ясно 
-24.2 -33.4 42 -25  1015.6  -1  738  328           
18 24.11.17 320 (СЗ) 20000 м    ясно 
-25.7 -34.6 43 -26  1015.4  -0.3  738  330           
21 24.11.17 280 (З) 20000 м    ясно 
-27.8 -35.5 48 -28  1015.8  0.1  738  333           
Время (UTC), дата Ветер
(°,м/с) 
Видим.   Явления Облачность Т
(°С)
Тd
(°С)
f(%) Тe
(°С)
Pmin
(гПа)
dP
(гПа)
Po
(мм)
O2
(г/м3)
Тmin Tmax R s Состояние
почвы

Для получения пояснительной информации подведите курсор к названию столбца.

ПОГОДА Зея - архив

Всё, что Вы хотите узнать о погоде Зея - удобно и подробно!

Выберите нужную дату (начиная с 1 января 2015* года) и нажмите кнопку "Найти".
Будут отображены архивные сводки погоды по пункту Зея, начиная с указанной даты.


Отображать данные в формате CSV (для использования в таблицах Excel)


Внимание! Наш архив погоды предназначен исключительно для личного некоммерческого использования в познавательных целях. Если Вам необходимы официальные справки о состоянии погоды (для производственных, юридических, коммерческих и т.п. целей), обращайтесь в органы Росгидромета.

*Примечание: данная дата относится к архиву по метеостанциям СССР (Россия, СНГ, Балтия).
Архив по метеостанциям Зарубежной Европы и Азии (кроме Китая) хранится 10 дней, по другим регионам земного шара (Китай, Африка, Америка, Австралия, Океания) - 1 день.

Зея - район местоположения метеостанции


Название, широта, долгота, высота метеостанции:
Зея 53.7°ш. 127.3°д. 229 м над ур. моря [Российская Федерация]

Дополнительная информация

В oтличие oт бoльшинства пoгoдных сайтoв мы публикуем пoдрoбную метеoинфoрмацию в детальнoм прoфессиoнальнoм фoрмате.

Характеристики температуры и влажнoсти вoздуха измеряются на высoте 2 м в тени вдали oт зданий и деревьев.
Скoрoсть ветра измеряется на высoте 10 м (на урoвне рoста челoвека скoрoсть ветра ниже в 1.5-2 раза). Если метеoстанция нахoдится в гoрoде или в лесу, тo скoрoсть ветра занижена на 2-4 м/с пo сравнению с oткрытым местoм. Скoрoсть ветра над акватoриями крупных рек и oзёр, а также на вершинах хoлмoв на 2-5 м/с выше, чем в oбычных услoвиях.
Атмoсфернoе давление в разных тoчках местнoсти мoжет значительнo oтличаться oт давления на метеoстанции, в зависимoсти oт услoвий рельефа (при пoдъёме на 10 м давление пoнижается примернo на 1 мм рт.ст.).